Location: Newark
(46.7000°N, 60.6000°W)
Time: 04:23:59
(UTC+00:00)

A-11 Canister half - Pass Details

Date: 02 November 2020
Orbit: 1525 x 1683 km, 47.3° (Epoch: 23 November)

Event Time Altitude Azimuth Distance (km) Brightness Sun altitude
Rises 20:30:19 0° 276° (W) 4,764 12.8 1.4°
Reaches altitude 10° 20:33:25 10° 277° (W) 3,760 12.2 1.0°
Maximum altitude 20:42:56 89° 9° (N) 1,542 9.1 -0.6°
Drops below altitude 10° 20:52:17 10° 99° (E) 3,691 10.5 -2.1°
Sets 20:55:18 0° 100° (E) 4,673 11.0 -2.5°
